DW9866 Weather Reports


time (UTC)temp
C
wind
direction
speed
KPH
gust
KPH
rain 1hr
cm
rain 24hr
cm
rain mn
cm
humidity
%
barometer
mb
20260504081555 6 206 9.7 19.3 0.00 0.00 0.00 60 1012.9
20260504080109 6 206 11.3 19.3 0.00 0.00 0.00 59 1012.9
20260504044519 6 206 8.0 19.3 0.00 0.00 0.00 58 1013.1
20260504043016 6 206 8.0 17.7 0.00 0.00 0.00 57 1013.0
20260504041505 6 206 6.4 17.7 0.00 0.00 0.00 56 1013.0
20260504040116 7 206 6.4 17.7 0.00 0.00 0.00 55 1012.8
20260504034550 7 206 6.4 14.5 0.00 0.00 0.00 55 1012.7
20260504033051 7 207 6.4 12.9 0.00 0.00 0.00 54 1012.7
20260504031557 7 206 8.0 16.1 0.00 0.00 0.00 54 1012.8
20260504030045 7 206 4.8 12.9 0.00 0.00 0.00 54 1012.8
20260504024547 7 207 8.0 17.7 0.00 0.00 0.00 53 1012.9
20260504023042 7 207 8.0 16.1 0.00 0.00 0.00 53 1012.8
20260504021539 7 206 6.4 19.3 0.00 0.00 0.00 52 1012.8
20260504020023 7 206 6.4 16.1 0.00 0.00 0.00 51 1012.8
20260504014522 7 206 6.4 12.9 0.00 0.00 0.00 50 1012.8
20260504013005 8 206 6.4 11.3 0.00 0.00 0.00 49 1012.7
20260504011552 8 206 6.4 16.1 0.00 0.00 0.00 48 1012.5
20260504010051 8 206 6.4 12.9 0.00 0.00 0.00 47 1012.5
20260504004542 8 206 3.2 9.7 0.00 0.00 0.00 46 1012.5
20260504003026 8 207 6.4 16.1 0.00 0.00 0.00 45 1012.4
20260504001520 8 206 4.8 14.5 0.00 0.00 0.00 44 1012.2
20260504000016 9 206 4.8 11.3 0.00 0.00 0.00 44 1012.1
20260503234507 9 207 6.4 19.3 0.00 0.00 0.00 43 1012.0
20260503233044 9 207 8.0 17.7 0.00 0.00 0.00 43 1011.9
20260503231519 10 206 6.4 16.1 0.00 0.00 0.00 42 1011.9
20260503230015 10 208 6.4 17.7 0.00 0.00 0.00 41 1011.8
20260503224559 10 207 4.8 17.7 0.00 0.00 0.00 42 1011.8
20260503223054 10 208 6.4 17.7 0.00 0.00 0.00 40 1011.8
20260503221542 10 206 3.2 27.4 0.00 0.00 0.00 40 1011.6
20260503220013 10 207 6.4 20.9 0.00 0.00 0.00 40 1011.7
20260503214513 10 207 6.4 17.7 0.00 0.00 0.00 40 1011.7
20260503213001 10 208 6.4 14.5 0.00 0.00 0.00 39 1011.4
20260503211551 10 207 6.4 16.1 0.00 0.00 0.00 38 1011.3
20260503210051 10 205 6.4 19.3 0.00 0.00 0.00 39 1011.3
20260503204541 10 208 6.4 19.3 0.00 0.00 0.00 37 1011.3
20260503203039 10 208 4.8 19.3 0.00 0.00 0.00 37 1011.2
20260503201532 10 208 14.5 29.0 0.00 0.00 0.00 35 1011.3
20260503200008 10 208 4.8 25.7 0.00 0.00 0.00 35 1011.5
20260503194543 10 206 8.0 25.7 0.00 0.00 0.00 35 1011.5
20260503193035 10 207 11.3 30.6 0.00 0.00 0.00 35 1011.7
20260503191606 10 206 9.7 33.8 0.00 0.00 0.00 34 1011.8
20260503190041 10 206 8.0 29.0 0.00 0.00 0.00 35 1011.8
20260503184522 9 208 12.9 24.1 0.00 0.00 0.00 37 1012.1
20260503183008 9 208 8.0 30.6 0.00 0.00 0.00 38 1012.4
20260503181633 8 208 8.0 25.7 0.00 0.00 0.00 40 1012.5
20260503180105 8 208 11.3 30.6 0.00 0.00 0.00 39 1012.5
20260503174548 7 208 11.3 27.4 0.00 0.00 0.00 42 1012.7
20260503173032 8 208 11.3 29.0 0.00 0.00 0.00 41 1012.8
20260503171523 7 208 9.7 40.2 0.00 0.00 0.00 44 1013.0